Weather History for Winona, MN

Change the Weather History Date:

Thursday, February 7, 2013

  Actual Average Record
Temperature  
Mean Temperature 28 °F -  
Max Temperature 30 °F 25 °F 46 °F (2009)
Min Temperature 26 °F 6 °F -17 °F (1972)
Degree Days  
Heating Degree Days 37    
Moisture  
Dew Point 25 °F    
Average Humidity 86    
Maximum Humidity 93    
Minimum Humidity 80    
Precipitation  
Precipitation 0.00 in - - ()
Sea Level Pressure  
Sea Level Pressure 30.05 in    
Wind  
Wind Speed 3 mph (North)    
Max Wind Speed 9 mph    
Max Gust Speed -    
Visibility 6 miles    
Events      
Averages and records for this station are not official NWS values.
T = Trace of Precipitation, MM = Missing Value Source: NWS Daily Summary

Daily Weather History Graph

Daily Weather History Graph

Search for Another Location

Airport:

Trip Planner

Search our weather history database for the weather conditions in past years. The results will help you decide how hot, cold, wet, or windy it might be!

Date:

Astronomy

Feb. 07, 2013 Rise Set
Actual Time 7:16 AM CST 5:25 PM CST
Civil Twilight 6:46 AM CST 5:56 PM CST
Nautical Twilight 6:12 AM CST 6:30 PM CST
Astronomical Twilight 5:38 AM CST 7:03 PM CST
Moon 5:00 AM CST (2/7) 2:47 PM CST (2/7)
Length of Visible Light 11h 09m
Length of Day
10h 08m
Waning Crescent, 9% of the Moon is Illuminated
Feb 7
Waning Crescent
Feb 10
New
Feb 17
First Quarter
Feb 25
Full
Mar 4
Last Quarter

Hourly Weather History & Observations

Time (CST) Temp. Windchill Dew Point Humidity Pressure Visibility Wind Dir Wind Speed Gust Speed Precip Events Conditions
12:35 AM 30.2 °F 26.7 °F 24.8 °F 80% 30.00 in 7.0 mi SSE 3.5 mph - N/A   Overcast
12:55 AM 30.2 °F 26.7 °F 24.8 °F 80% 30.00 in 7.0 mi SSE 3.5 mph - N/A   Overcast
1:15 AM 28.4 °F 24.6 °F 24.8 °F 86% 29.99 in 7.0 mi SSE 3.5 mph - N/A   Overcast
1:35 AM 28.4 °F - 24.8 °F 86% 29.99 in 7.0 mi Calm Calm - N/A   Overcast
1:55 AM 28.4 °F - 24.8 °F 86% 29.99 in 7.0 mi Calm Calm - N/A   Overcast
2:15 AM 28.4 °F - 24.8 °F 86% 29.99 in 7.0 mi Calm Calm - N/A   Overcast
2:35 AM 28.4 °F 24.6 °F 24.8 °F 86% 29.99 in 7.0 mi SSE 3.5 mph - N/A   Overcast
2:55 AM 28.4 °F - 24.8 °F 86% 29.99 in 7.0 mi Calm Calm - N/A   Overcast
3:15 AM 28.4 °F - 24.8 °F 86% 29.99 in 5.0 mi Calm Calm - N/A   Overcast
3:35 AM 28.4 °F 24.6 °F 24.8 °F 86% 29.98 in 5.0 mi SSE 3.5 mph - N/A   Overcast
3:55 AM 28.4 °F 24.6 °F 24.8 °F 86% 29.98 in 5.0 mi SSE 3.5 mph - N/A   Overcast
4:15 AM 28.4 °F - 24.8 °F 86% 29.98 in 5.0 mi Calm Calm - N/A   Overcast
4:35 AM 28.4 °F - 24.8 °F 86% 29.98 in 5.0 mi Calm Calm - N/A   Overcast
4:55 AM 28.4 °F - 24.8 °F 86% 29.98 in 5.0 mi Calm Calm - N/A   Overcast
5:15 AM 28.4 °F - 26.6 °F 93% 29.97 in 4.0 mi Calm Calm - N/A   Overcast
5:35 AM 28.4 °F - 26.6 °F 93% 29.98 in 4.0 mi Calm Calm - N/A   Overcast
5:55 AM 28.4 °F - 26.6 °F 93% 29.99 in 4.0 mi Calm Calm - N/A   Overcast
6:15 AM 28.4 °F - 26.6 °F 93% 29.99 in 4.0 mi Calm Calm - N/A   Overcast
6:35 AM 28.4 °F - 24.8 °F 86% 29.99 in 5.0 mi Calm Calm - N/A   Overcast
6:55 AM 28.4 °F - 24.8 °F 86% 29.99 in 5.0 mi Calm Calm - N/A   Overcast
7:15 AM 28.4 °F 24.6 °F 24.8 °F 86% 30.00 in 5.0 mi NNE 3.5 mph - N/A   Overcast
7:35 AM 28.4 °F - 24.8 °F 86% 30.00 in 5.0 mi Calm Calm - N/A   Overcast
7:55 AM 28.4 °F - 24.8 °F 86% 30.00 in 4.0 mi Calm Calm - N/A   Overcast
8:15 AM 28.4 °F - 24.8 °F 86% 30.01 in 4.0 mi Calm Calm - N/A   Overcast
8:35 AM 28.4 °F - 24.8 °F 86% 30.02 in 4.0 mi Calm Calm - N/A   Overcast
8:55 AM 28.4 °F 23.3 °F 24.8 °F 86% 30.02 in 4.0 mi NNE 4.6 mph - N/A   Overcast
8:59 AM 30.2 °F - 24.8 °F 80% 30.02 in 4.0 mi Calm Calm - N/A   Haze
9:35 AM 28.4 °F 23.3 °F 24.8 °F 86% 30.02 in 3.0 mi NNE 4.6 mph - N/A   Overcast
9:55 AM 28.4 °F 22.2 °F 24.8 °F 86% 30.03 in 3.0 mi NNE 5.8 mph - N/A   Overcast
10:15 AM 28.4 °F 23.3 °F 24.8 °F 86% 30.04 in 2.5 mi NNE 4.6 mph - N/A   Overcast
10:35 AM 28.4 °F 23.3 °F 24.8 °F 86% 30.04 in 2.5 mi NNE 4.6 mph - N/A   Overcast
10:55 AM 28.4 °F 24.6 °F 24.8 °F 86% 30.04 in 2.5 mi NNE 3.5 mph - N/A   Overcast
11:15 AM 28.4 °F 24.6 °F 24.8 °F 86% 30.04 in 2.5 mi NE 3.5 mph - N/A   Overcast
11:35 AM 28.4 °F 22.2 °F 24.8 °F 86% 30.04 in 2.0 mi NE 5.8 mph - N/A   Overcast
12:00 PM 28.4 °F 21.2 °F 24.8 °F 86% 30.02 in 2.5 mi NNE 6.9 mph - N/A   Overcast
12:25 PM 28.4 °F 22.2 °F 24.8 °F 86% 30.02 in 2.5 mi NNE 5.8 mph - N/A   Overcast
12:40 PM 28.4 °F 21.2 °F 24.8 °F 86% 30.02 in 2.5 mi NNE 6.9 mph - N/A   Overcast
12:41 PM 28.4 °F 21.2 °F 24.8 °F 86% 30.02 in 2.5 mi NNE 6.9 mph - N/A   Overcast
12:55 PM 30.2 °F 25.4 °F 26.6 °F 86% 30.02 in 2.5 mi NNE 4.6 mph - N/A   Overcast
1:15 PM 30.2 °F 25.4 °F 26.6 °F 86% 30.02 in 2.5 mi NNE 4.6 mph - N/A   Overcast
1:35 PM 30.2 °F 25.4 °F 26.6 °F 86% 30.02 in 3.0 mi NNE 4.6 mph - N/A   Overcast
1:55 PM 30.2 °F 25.4 °F 26.6 °F 86% 30.02 in 3.0 mi North 4.6 mph - N/A   Overcast
2:15 PM 30.2 °F 25.4 °F 26.6 °F 86% 30.02 in 2.5 mi North 4.6 mph - N/A   Overcast
2:35 PM 28.4 °F 19.7 °F 26.6 °F 93% 30.02 in 2.5 mi NNW 9.2 mph - N/A   Overcast
2:55 PM 28.4 °F 20.4 °F 26.6 °F 93% 30.02 in 3.0 mi NNW 8.1 mph - N/A   Overcast
3:15 PM 28.4 °F 23.3 °F 26.6 °F 93% 30.03 in 5.0 mi North 4.6 mph - N/A   Overcast
3:35 PM 28.4 °F 22.2 °F 26.6 °F 93% 30.04 in 5.0 mi North 5.8 mph - N/A   Overcast
3:55 PM 28.4 °F 21.2 °F 26.6 °F 93% 30.04 in 7.0 mi North 6.9 mph - N/A   Overcast
4:15 PM 28.4 °F 21.2 °F 24.8 °F 86% 30.05 in 7.0 mi North 6.9 mph - N/A   Overcast
4:35 PM 28.4 °F 23.3 °F 24.8 °F 86% 30.06 in 7.0 mi North 4.6 mph - N/A   Overcast
4:55 PM 28.4 °F 21.2 °F 24.8 °F 86% 30.07 in 10.0 mi North 6.9 mph - N/A   Overcast
5:15 PM 28.4 °F 22.2 °F 24.8 °F 86% 30.09 in 7.0 mi North 5.8 mph - N/A   Overcast
5:35 PM 28.4 °F 22.2 °F 24.8 °F 86% 30.09 in 5.0 mi North 5.8 mph - N/A   Overcast
5:55 PM 28.4 °F 21.2 °F 24.8 °F 86% 30.11 in 10.0 mi NNW 6.9 mph - N/A   Overcast
6:15 PM 28.4 °F 20.4 °F 24.8 °F 86% 30.12 in 7.0 mi NNW 8.1 mph - N/A   Overcast
6:35 PM 28.4 °F 21.2 °F 26.6 °F 93% 30.12 in 7.0 mi NNW 6.9 mph - N/A   Overcast
6:55 PM 28.4 °F 20.4 °F 26.6 °F 93% 30.13 in 10.0 mi NNW 8.1 mph - N/A   Overcast
7:15 PM 28.4 °F 23.3 °F 26.6 °F 93% 30.14 in 10.0 mi North 4.6 mph - N/A   Overcast
7:35 PM 28.4 °F 22.2 °F 26.6 °F 93% 30.14 in 10.0 mi NNW 5.8 mph - N/A   Overcast
7:55 PM 26.6 °F 20.0 °F 23.0 °F 86% 30.14 in 10.0 mi NNW 5.8 mph - N/A   Overcast
8:15 PM 26.6 °F 20.0 °F 23.0 °F 86% 30.15 in 10.0 mi NNW 5.8 mph - N/A   Overcast
8:35 PM 26.6 °F 19.1 °F 23.0 °F 86% 30.15 in 10.0 mi NNW 6.9 mph - N/A   Overcast
8:55 PM 28.4 °F 24.6 °F 23.0 °F 80% 30.16 in 10.0 mi North 3.5 mph - N/A   Overcast
9:15 PM 28.4 °F 22.2 °F 23.0 °F 80% 30.17 in 10.0 mi NNW 5.8 mph - N/A   Overcast
9:35 PM 28.4 °F 22.2 °F 23.0 °F 80% 30.18 in 10.0 mi NNW 5.8 mph - N/A   Overcast
9:55 PM 28.4 °F 22.2 °F 23.0 °F 80% 30.18 in 10.0 mi NNW 5.8 mph - N/A   Overcast
10:15 PM 28.4 °F 24.6 °F 23.0 °F 80% 30.19 in 10.0 mi North 3.5 mph - N/A   Overcast
10:35 PM 28.4 °F 21.2 °F 23.0 °F 80% 30.19 in 10.0 mi NNW 6.9 mph - N/A   Overcast
10:55 PM 28.4 °F 21.2 °F 23.0 °F 80% 30.20 in 10.0 mi NNW 6.9 mph - N/A   Overcast
11:15 PM 28.4 °F 24.6 °F 23.0 °F 80% 30.20 in 10.0 mi North 3.5 mph - N/A   Overcast
11:35 PM 28.4 °F 23.3 °F 23.0 °F 80% 30.21 in 10.0 mi North 4.6 mph - N/A   Overcast